| time (UTC) | temp F | wind direction | speed MPH | gust MPH | rain 1hr in | rain 24hr in | rain mn in | humidity % | barometer mb |
| 20260509101050 | 74 | 0 | 0.0 | 0.0 | 0.00 | 0.00 | 0.00 | 98 | 995.4 |
| 20260509100550 | 74 | 204 | 0.0 | 0.0 | 0.00 | 0.00 | 0.00 | 98 | 995.3 |
| 20260509100046 | 74 | 0 | 0.0 | 0.0 | 0.00 | 0.00 | 0.00 | 97 | 995.2 |
| 20260509095548 | 74 | 0 | 0.0 | 0.0 | 0.00 | 0.00 | 0.00 | 97 | 995.1 |
| 20260509095046 | 74 | 204 | 0.0 | 0.0 | 0.00 | 0.00 | 0.00 | 97 | 995.0 |
| 20260509094546 | 74 | 204 | 0.0 | 0.0 | 0.00 | 0.00 | 0.00 | 97 | 995.1 |
| 20260509094046 | 74 | 204 | 0.0 | 0.0 | 0.00 | 0.00 | 0.00 | 97 | 995.0 |
| 20260509093546 | 74 | 205 | 0.0 | 0.0 | 0.00 | 0.00 | 0.00 | 97 | 995.1 |
| 20260509093047 | 74 | 205 | 0.0 | 0.0 | 0.00 | 0.00 | 0.00 | 97 | 995.3 |
| 20260509092546 | 74 | 205 | 0.0 | 0.0 | 0.00 | 0.00 | 0.00 | 97 | 995.4 |
| 20260509092046 | 74 | 0 | 0.0 | 0.0 | 0.00 | 0.00 | 0.00 | 97 | 995.4 |
| 20260509091546 | 74 | 0 | 0.0 | 0.0 | 0.00 | 0.00 | 0.00 | 97 | 995.4 |
| 20260509091048 | 74 | 204 | 0.0 | 0.0 | 0.00 | 0.00 | 0.00 | 97 | 995.3 |
| 20260509090546 | 74 | 204 | 0.0 | 0.0 | 0.00 | 0.00 | 0.00 | 97 | 995.3 |
| 20260509090046 | 74 | 204 | 0.0 | 0.0 | 0.00 | 0.00 | 0.00 | 97 | 995.5 |
| 20260509085546 | 74 | 204 | 0.0 | 0.0 | 0.00 | 0.00 | 0.00 | 97 | 995.5 |
| 20260509085316 | 74 | 205 | 0.0 | 0.0 | 0.00 | 0.00 | 0.00 | 97 | 995.5 |
| 20260509084546 | 74 | 205 | 0.0 | 0.0 | 0.00 | 0.00 | 0.00 | 97 | 995.6 |
| 20260509084046 | 74 | 205 | 0.0 | 0.0 | 0.00 | 0.00 | 0.00 | 97 | 995.7 |
| 20260509083546 | 74 | 205 | 0.0 | 0.0 | 0.00 | 0.00 | 0.00 | 97 | 995.6 |
| 20260509083046 | 74 | 205 | 0.0 | 0.0 | 0.00 | 0.00 | 0.00 | 97 | 995.6 |
| 20260509082546 | 74 | 205 | 0.0 | 0.0 | 0.00 | 0.00 | 0.00 | 97 | 995.7 |
| 20260509082046 | 74 | 205 | 0.0 | 0.0 | 0.00 | 0.00 | 0.00 | 97 | 995.8 |
| 20260509081546 | 74 | 205 | 0.0 | 0.0 | 0.00 | 0.00 | 0.00 | 97 | 995.8 |
| 20260509081045 | 74 | 205 | 0.0 | 0.0 | 0.00 | 0.00 | 0.00 | 97 | 995.7 |
| 20260509080545 | 74 | 0 | 0.0 | 0.0 | 0.00 | 0.00 | 0.00 | 97 | 995.6 |
| 20260509080046 | 74 | 205 | 0.0 | 0.0 | 0.00 | 0.00 | 0.00 | 97 | 995.5 |
| 20260509075546 | 74 | 205 | 0.0 | 0.0 | 0.00 | 0.00 | 0.00 | 97 | 995.6 |
| 20260509075048 | 74 | 205 | 0.0 | 0.0 | 0.00 | 0.00 | 0.00 | 96 | 995.6 |
| 20260509074548 | 74 | 205 | 0.0 | 0.0 | 0.00 | 0.00 | 0.00 | 96 | 995.6 |
| 20260509074048 | 74 | 205 | 0.0 | 0.0 | 0.00 | 0.00 | 0.00 | 96 | 995.5 |
| 20260509073549 | 74 | 205 | 0.0 | 0.0 | 0.00 | 0.00 | 0.00 | 96 | 995.3 |
| 20260509073047 | 74 | 205 | 0.0 | 0.0 | 0.00 | 0.00 | 0.00 | 96 | 995.2 |
| 20260509072550 | 74 | 205 | 0.0 | 0.0 | 0.00 | 0.00 | 0.00 | 96 | 995.3 |
| 20260509072305 | 74 | 205 | 0.0 | 0.0 | 0.00 | 0.00 | 0.00 | 96 | 995.4 |
| 20260509071801 | 74 | 205 | 0.0 | 0.0 | 0.00 | 0.00 | 0.00 | 96 | 995.5 |
| 20260509071306 | 74 | 205 | 0.0 | 0.0 | 0.00 | 0.00 | 0.00 | 96 | 995.4 |
| 20260509070542 | 74 | 205 | 0.0 | 0.0 | 0.00 | 0.00 | 0.00 | 96 | 995.4 |
| 20260509070043 | 74 | 205 | 0.0 | 0.0 | 0.00 | 0.00 | 0.00 | 96 | 995.5 |
| 20260509065541 | 74 | 205 | 0.0 | 0.0 | 0.00 | 0.00 | 0.00 | 96 | 995.5 |
| 20260509065041 | 74 | 205 | 0.0 | 0.0 | 0.00 | 0.00 | 0.00 | 96 | 995.5 |
| 20260509064542 | 74 | 205 | 0.0 | 1.0 | 0.00 | 0.00 | 0.00 | 96 | 995.5 |
| 20260509064042 | 74 | 67 | 0.0 | 1.0 | 0.00 | 0.00 | 0.00 | 96 | 995.5 |
| 20260509063538 | 74 | 67 | 0.0 | 1.0 | 0.00 | 0.00 | 0.00 | 96 | 995.5 |
| 20260509063038 | 74 | 67 | 0.0 | 1.0 | 0.00 | 0.00 | 0.00 | 96 | 995.5 |
| 20260509062539 | 74 | 341 | 0.0 | 1.0 | 0.00 | 0.00 | 0.00 | 96 | 995.4 |
| 20260509062038 | 74 | 341 | 0.0 | 0.0 | 0.00 | 0.00 | 0.00 | 96 | 995.6 |
| 20260509061538 | 74 | 341 | 0.0 | 0.0 | 0.00 | 0.00 | 0.00 | 96 | 995.7 |
| 20260509061039 | 74 | 341 | 0.0 | 0.0 | 0.00 | 0.00 | 0.00 | 96 | 995.8 |
| 20260509060538 | 74 | 342 | 0.0 | 0.0 | 0.00 | 0.00 | 0.00 | 96 | 995.9 |
| 20260509060256 | 74 | 342 | 0.0 | 0.0 | 0.00 | 0.00 | 0.00 | 96 | 995.9 |
| 20260509055801 | 74 | 342 | 0.0 | 0.0 | 0.00 | 0.00 | 0.00 | 96 | 995.9 |
| 20260509055038 | 74 | 342 | 0.0 | 0.0 | 0.00 | 0.00 | 0.00 | 96 | 995.8 |
| 20260509054539 | 74 | 342 | 0.0 | 1.0 | 0.00 | 0.00 | 0.00 | 96 | 996.0 |
| 20260509054038 | 74 | 342 | 0.0 | 1.0 | 0.00 | 0.00 | 0.00 | 95 | 996.0 |
| 20260509053538 | 74 | 342 | 0.0 | 1.0 | 0.00 | 0.00 | 0.00 | 95 | 996.0 |
| 20260509053038 | 74 | 342 | 0.0 | 1.0 | 0.00 | 0.00 | 0.00 | 95 | 995.9 |
| 20260509052537 | 74 | 343 | 0.0 | 0.0 | 0.00 | 0.00 | 0.00 | 95 | 996.0 |
| 20260509052306 | 74 | 343 | 0.0 | 0.0 | 0.00 | 0.00 | 0.00 | 95 | 996.0 |
| 20260509051536 | 74 | 343 | 0.0 | 1.0 | 0.00 | 0.00 | 0.00 | 95 | 996.0 |
| 20260509051036 | 74 | 343 | 0.0 | 1.0 | 0.00 | 0.00 | 0.00 | 95 | 996.0 |
| 20260509050532 | 74 | 0 | 0.0 | 3.0 | 0.00 | 0.00 | 0.00 | 95 | 995.9 |
| 20260509050029 | 74 | 0 | 0.0 | 3.0 | 0.00 | 0.00 | 0.00 | 95 | 995.9 |
| 20260509045525 | 74 | 0 | 0.0 | 2.0 | 0.00 | 0.00 | 0.00 | 95 | 995.9 |
| 20260509045240 | 74 | 0 | 0.0 | 2.0 | 0.00 | 0.00 | 0.00 | 95 | 996.0 |
| 20260509044743 | 74 | 0 | 0.0 | 0.0 | 0.00 | 0.00 | 0.00 | 95 | 996.0 |
| 20260509044023 | 74 | 0 | 0.0 | 0.0 | 0.00 | 0.00 | 0.00 | 95 | 996.1 |
| 20260509043745 | 74 | 0 | 0.0 | 0.0 | 0.00 | 0.00 | 0.00 | 95 | 996.1 |
| 20260509043020 | 74 | 0 | 0.0 | 0.0 | 0.00 | 0.00 | 0.00 | 95 | 995.9 |
| 20260509042520 | 74 | 0 | 0.0 | 0.0 | 0.00 | 0.00 | 0.00 | 95 | 995.8 |
| 20260509042516 | 74 | 0 | 0.0 | 0.0 | 0.00 | 0.00 | 0.00 | 94 | 996.0 |
| 20260509041519 | 74 | 0 | 0.0 | 0.0 | 0.00 | 0.00 | 0.00 | 94 | 996.1 |
| 20260509041019 | 74 | 0 | 0.0 | 0.0 | 0.00 | 0.00 | 0.00 | 94 | 996.0 |
| 20260509040514 | 74 | 0 | 0.0 | 0.0 | 0.00 | 0.00 | 0.00 | 94 | 996.0 |
| 20260509040014 | 74 | 0 | 0.0 | 0.0 | 0.00 | 0.00 | 0.00 | 94 | 996.0 |
| 20260509035514 | 74 | 0 | 0.0 | 2.0 | 0.00 | 0.00 | 0.00 | 94 | 995.8 |
| 20260509035014 | 74 | 0 | 0.0 | 3.0 | 0.00 | 0.00 | 0.00 | 94 | 995.7 |
| 20260509034516 | 74 | 0 | 0.0 | 3.0 | 0.00 | 0.00 | 0.00 | 94 | 995.7 |
| 20260509034015 | 74 | 0 | 0.0 | 1.0 | 0.00 | 0.00 | 0.00 | 94 | 995.7 |
| 20260509033516 | 74 | 0 | 0.0 | 2.0 | 0.00 | 0.00 | 0.00 | 94 | 995.8 |
| 20260509033014 | 74 | 0 | 0.0 | 2.0 | 0.00 | 0.00 | 0.00 | 94 | 995.8 |
| 20260509032515 | 74 | 0 | 0.0 | 2.0 | 0.00 | 0.00 | 0.00 | 94 | 995.7 |
| 20260509032234 | 74 | 0 | 0.0 | 2.0 | 0.00 | 0.00 | 0.00 | 94 | 995.7 |
| 20260509031514 | 74 | 0 | 0.0 | 1.0 | 0.00 | 0.00 | 0.00 | 93 | 995.7 |
| 20260509031015 | 74 | 0 | 0.0 | 1.0 | 0.00 | 0.00 | 0.00 | 93 | 995.6 |
| 20260509030514 | 74 | 0 | 0.0 | 2.0 | 0.00 | 0.00 | 0.00 | 93 | 995.6 |
| 20260509030014 | 74 | 0 | 0.0 | 2.0 | 0.00 | 0.00 | 0.00 | 93 | 995.6 |
| 20260509025516 | 74 | 0 | 0.0 | 2.0 | 0.00 | 0.00 | 0.00 | 93 | 995.4 |
| 20260509025014 | 74 | 0 | 0.0 | 2.0 | 0.00 | 0.00 | 0.00 | 93 | 995.2 |
| 20260509024515 | 74 | 0 | 0.0 | 0.0 | 0.00 | 0.00 | 0.00 | 93 | 995.2 |
| 20260509024014 | 74 | 0 | 0.0 | 0.0 | 0.00 | 0.00 | 0.00 | 93 | 995.2 |
| 20260509023514 | 74 | 0 | 0.0 | 0.0 | 0.00 | 0.00 | 0.00 | 93 | 995.2 |
| 20260509023241 | 74 | 0 | 0.0 | 0.0 | 0.00 | 0.00 | 0.00 | 93 | 995.3 |
| 20260509022514 | 74 | 0 | 0.0 | 0.0 | 0.00 | 0.00 | 0.00 | 92 | 995.2 |
| 20260509022015 | 74 | 0 | 0.0 | 0.0 | 0.00 | 0.00 | 0.00 | 92 | 995.2 |
| 20260509021515 | 75 | 0 | 0.0 | 1.0 | 0.00 | 0.00 | 0.00 | 92 | 995.1 |
| 20260509021014 | 75 | 0 | 0.0 | 1.0 | 0.00 | 0.00 | 0.00 | 92 | 995.1 |
| 20260509020515 | 75 | 0 | 0.0 | 1.0 | 0.00 | 0.00 | 0.00 | 92 | 995.0 |
| 20260509020014 | 75 | 0 | 0.0 | 1.0 | 0.00 | 0.00 | 0.00 | 92 | 995.2 |
| 20260509015514 | 75 | 0 | 0.0 | 1.0 | 0.00 | 0.00 | 0.00 | 92 | 995.1 |
| 20260509015236 | 75 | 0 | 0.0 | 1.0 | 0.00 | 0.00 | 0.00 | 91 | 995.1 |
| 20260509014514 | 75 | 79 | 0.0 | 1.0 | 0.00 | 0.00 | 0.00 | 91 | 995.0 |
| 20260509014015 | 75 | 0 | 0.0 | 1.0 | 0.00 | 0.00 | 0.00 | 91 | 995.1 |
| 20260509013514 | 76 | 0 | 0.0 | 5.0 | 0.00 | 0.00 | 0.00 | 91 | 995.2 |
| 20260509013015 | 76 | 0 | 0.0 | 5.0 | 0.00 | 0.00 | 0.00 | 91 | 995.2 |
| 20260509012513 | 76 | 0 | 0.0 | 0.0 | 0.00 | 0.00 | 0.00 | 90 | 995.1 |
| 20260509012015 | 76 | 0 | 0.0 | 0.0 | 0.00 | 0.00 | 0.00 | 90 | 994.9 |
| 20260509011511 | 76 | 0 | 0.0 | 2.0 | 0.00 | 0.00 | 0.00 | 90 | 994.8 |
| 20260509011005 | 76 | 0 | 0.0 | 2.0 | 0.00 | 0.00 | 0.00 | 90 | 994.8 |
| 20260509010506 | 76 | 0 | 0.0 | 1.0 | 0.00 | 0.00 | 0.00 | 90 | 994.8 |
| 20260509010230 | 76 | 0 | 0.0 | 1.0 | 0.00 | 0.00 | 0.00 | 89 | 994.7 |
| 20260509005506 | 76 | 0 | 0.0 | 0.0 | 0.00 | 0.00 | 0.00 | 89 | 994.6 |
| 20260509005006 | 76 | 0 | 0.0 | 1.0 | 0.00 | 0.00 | 0.00 | 89 | 994.6 |
| 20260509004506 | 76 | 0 | 0.0 | 1.0 | 0.00 | 0.00 | 0.00 | 89 | 994.6 |
| 20260509004006 | 76 | 0 | 0.0 | 0.0 | 0.00 | 0.00 | 0.00 | 89 | 994.4 |
| 20260509003506 | 76 | 0 | 0.0 | 1.0 | 0.00 | 0.00 | 0.00 | 89 | 994.5 |
| 20260509003006 | 77 | 0 | 0.0 | 1.0 | 0.00 | 0.00 | 0.00 | 89 | 994.6 |
| 20260509002726 | 77 | 0 | 0.0 | 0.0 | 0.00 | 0.00 | 0.00 | 89 | 994.7 |
| 20260509002057 | 77 | 0 | 0.0 | 0.0 | 0.00 | 0.00 | 0.00 | 88 | 994.8 |
| 20260509001001 | 77 | 0 | 0.0 | 1.0 | 0.00 | 0.00 | 0.00 | 88 | 994.9 |
| 20260509000503 | 77 | 0 | 0.0 | 1.0 | 0.00 | 0.00 | 0.00 | 88 | 994.9 |
| 20260509000227 | 77 | 0 | 0.0 | 1.0 | 0.00 | 0.00 | 0.00 | 88 | 994.8 |
| 20260508235503 | 77 | 0 | 0.0 | 1.0 | 0.00 | 0.00 | 0.00 | 88 | 995.0 |
| 20260508235002 | 78 | 0 | 0.0 | 1.0 | 0.00 | 0.00 | 0.00 | 88 | 994.9 |
| 20260508234503 | 78 | 0 | 0.0 | 0.0 | 0.00 | 0.00 | 0.00 | 87 | 994.9 |
| 20260508233958 | 78 | 0 | 0.0 | 1.0 | 0.00 | 0.00 | 0.00 | 87 | 995.0 |
| 20260508233458 | 78 | 0 | 0.0 | 4.0 | 0.00 | 0.00 | 0.00 | 87 | 995.0 |
| 20260508232959 | 78 | 80 | 0.0 | 4.0 | 0.00 | 0.00 | 0.00 | 87 | 995.0 |
| 20260508232457 | 78 | 0 | 0.0 | 1.0 | 0.00 | 0.00 | 0.00 | 87 | 994.9 |
| 20260508231958 | 78 | 28 | 0.0 | 1.0 | 0.00 | 0.00 | 0.00 | 86 | 994.9 |
| 20260508231459 | 78 | 0 | 0.0 | 1.0 | 0.00 | 0.00 | 0.00 | 86 | 994.9 |
| 20260508230959 | 78 | 0 | 0.0 | 1.0 | 0.00 | 0.00 | 0.00 | 86 | 995.0 |
| 20260508230459 | 79 | 93 | 0.0 | 1.0 | 0.00 | 0.00 | 0.00 | 86 | 994.9 |
| 20260508225959 | 79 | 0 | 0.0 | 2.0 | 0.00 | 0.00 | 0.00 | 86 | 994.9 |
| 20260508225456 | 79 | 0 | 0.0 | 2.0 | 0.00 | 0.00 | 0.00 | 86 | 994.9 |
| 20260508224955 | 79 | 0 | 0.0 | 1.0 | 0.00 | 0.00 | 0.00 | 85 | 994.9 |
| 20260508224456 | 79 | 0 | 0.0 | 1.0 | 0.00 | 0.00 | 0.00 | 85 | 994.9 |
| 20260508223956 | 79 | 0 | 0.0 | 1.0 | 0.00 | 0.00 | 0.00 | 85 | 994.8 |
| 20260508223938 | 79 | 0 | 0.0 | 3.0 | 0.00 | 0.00 | 0.00 | 85 | 994.8 |
| 20260508222952 | 79 | 0 | 1.0 | 3.0 | 0.00 | 0.00 | 0.00 | 85 | 994.8 |
| 20260508222450 | 79 | 0 | 0.0 | 5.0 | 0.00 | 0.00 | 0.00 | 85 | 994.7 |
| 20260508221949 | 79 | 0 | 0.0 | 5.0 | 0.00 | 0.00 | 0.00 | 85 | 994.8 |
| 20260508221713 | 79 | 0 | 0.0 | 1.0 | 0.00 | 0.00 | 0.00 | 85 | 994.8 |
| 20260508220949 | 79 | 0 | 0.0 | 1.0 | 0.00 | 0.00 | 0.00 | 86 | 994.9 |
| 20260508220448 | 79 | 200 | 0.0 | 2.0 | 0.00 | 0.00 | 0.00 | 85 | 995.0 |
| 20260508215945 | 79 | 0 | 1.0 | 3.0 | 0.00 | 0.00 | 0.00 | 85 | 995.0 |
| 20260508215446 | 79 | 0 | 1.0 | 3.0 | 0.00 | 0.00 | 0.00 | 84 | 995.1 |
| 20260508214946 | 80 | 0 | 0.0 | 3.0 | 0.00 | 0.00 | 0.00 | 84 | 995.0 |
| 20260508214443 | 80 | 0 | 0.0 | 3.0 | 0.00 | 0.00 | 0.00 | 84 | 995.0 |
| 20260508213943 | 80 | 0 | 0.0 | 2.0 | 0.00 | 0.00 | 0.00 | 84 | 995.0 |
| 20260508213443 | 80 | 0 | 0.0 | 2.0 | 0.00 | 0.00 | 0.00 | 85 | 995.0 |
| 20260508212942 | 79 | 0 | 0.0 | 3.0 | 0.00 | 0.00 | 0.00 | 85 | 995.0 |
| 20260508212442 | 79 | 0 | 1.0 | 4.0 | 0.00 | 0.00 | 0.00 | 85 | 995.2 |
| 20260508211941 | 79 | 0 | 1.0 | 4.0 | 0.00 | 0.00 | 0.00 | 84 | 995.2 |
| 20260508211441 | 79 | 0 | 1.0 | 4.0 | 0.00 | 0.00 | 0.00 | 84 | 995.2 |
| 20260508210940 | 79 | 0 | 0.0 | 2.0 | 0.00 | 0.00 | 0.00 | 85 | 995.2 |
| 20260508210440 | 79 | 0 | 0.0 | 2.0 | 0.00 | 0.00 | 0.00 | 85 | 995.2 |
| 20260508205939 | 79 | 0 | 1.0 | 3.0 | 0.00 | 0.00 | 0.00 | 84 | 995.4 |
| 20260508205702 | 79 | 0 | 1.0 | 3.0 | 0.00 | 0.00 | 0.00 | 84 | 995.5 |
| 20260508204937 | 79 | 0 | 0.0 | 3.0 | 0.00 | 0.00 | 0.00 | 85 | 995.5 |
| 20260508204918 | 79 | 0 | 0.0 | 6.0 | 0.00 | 0.00 | 0.00 | 85 | 995.5 |
| 20260508203935 | 79 | 167 | 1.0 | 6.0 | 0.00 | 0.00 | 0.00 | 84 | 995.6 |
| 20260508203435 | 79 | 313 | 1.0 | 4.0 | 0.00 | 0.00 | 0.00 | 85 | 995.7 |
| 20260508202933 | 79 | 135 | 1.0 | 4.0 | 0.00 | 0.00 | 0.00 | 85 | 995.6 |
| 20260508202433 | 78 | 134 | 1.0 | 4.0 | 0.00 | 0.00 | 0.00 | 85 | 995.7 |
| 20260508201932 | 78 | 221 | 1.0 | 4.0 | 0.00 | 0.00 | 0.00 | 85 | 995.9 |
| 20260508201429 | 78 | 217 | 0.0 | 3.0 | 0.00 | 0.00 | 0.00 | 85 | 995.8 |
| 20260508200929 | 78 | 102 | 0.0 | 1.0 | 0.00 | 0.00 | 0.00 | 85 | 995.8 |
| 20260508200430 | 78 | 164 | 0.0 | 3.0 | 0.00 | 0.00 | 0.00 | 86 | 996.0 |
| 20260508195927 | 78 | 164 | 0.0 | 3.0 | 0.00 | 0.00 | 0.00 | 86 | 996.1 |
| 20260508195427 | 78 | 51 | 0.0 | 1.0 | 0.00 | 0.00 | 0.00 | 86 | 996.0 |
| 20260508194928 | 78 | 141 | 0.0 | 1.0 | 0.00 | 0.00 | 0.00 | 86 | 996.0 |
| 20260508194902 | 78 | 211 | 0.0 | 1.0 | 0.00 | 0.00 | 0.00 | 86 | 996.2 |
| 20260508193926 | 77 | 205 | 0.0 | 0.0 | 0.00 | 0.00 | 0.00 | 86 | 996.2 |
| 20260508193426 | 77 | 176 | 0.0 | 1.0 | 0.00 | 0.00 | 0.00 | 86 | 996.1 |
| 20260508192925 | 77 | 153 | 0.0 | 2.0 | 0.00 | 0.00 | 0.00 | 86 | 996.3 |
| 20260508192425 | 77 | 115 | 0.0 | 2.0 | 0.00 | 0.00 | 0.00 | 86 | 996.4 |
| 20260508191923 | 77 | 92 | 0.0 | 1.0 | 0.00 | 0.00 | 0.00 | 86 | 996.5 |
| 20260508191421 | 77 | 307 | 0.0 | 0.0 | 0.00 | 0.00 | 0.00 | 86 | 996.6 |
| 20260508190921 | 77 | 25 | 0.0 | 0.0 | 0.00 | 0.00 | 0.00 | 86 | 996.7 |
| 20260508190421 | 77 | 117 | 0.0 | 0.0 | 0.00 | 0.00 | 0.00 | 86 | 996.6 |
| 20260508185921 | 77 | 134 | 0.0 | 0.0 | 0.00 | 0.00 | 0.00 | 86 | 996.6 |
| 20260508185641 | 77 | 123 | 0.0 | 1.0 | 0.00 | 0.00 | 0.00 | 86 | 996.7 |
| 20260508184921 | 76 | 92 | 0.0 | 1.0 | 0.00 | 0.00 | 0.00 | 86 | 996.6 |
| 20260508184905 | 76 | 348 | 0.0 | 2.0 | 0.00 | 0.00 | 0.00 | 86 | 996.7 |
| 20260508183921 | 76 | 0 | 1.0 | 2.0 | 0.00 | 0.00 | 0.00 | 86 | 996.9 |
| 20260508183420 | 76 | 0 | 0.0 | 2.0 | 0.00 | 0.00 | 0.00 | 87 | 996.9 |
| 20260508182919 | 76 | 186 | 0.0 | 2.0 | 0.00 | 0.00 | 0.00 | 86 | 996.9 |
| 20260508182420 | 76 | 115 | 0.0 | 2.0 | 0.00 | 0.00 | 0.00 | 87 | 996.9 |
| 20260508181919 | 75 | 308 | 0.0 | 2.0 | 0.00 | 0.00 | 0.00 | 87 | 996.8 |
| 20260508181416 | 75 | 233 | 0.0 | 3.0 | 0.00 | 0.00 | 0.00 | 87 | 996.9 |
| 20260508180917 | 75 | 0 | 0.0 | 3.0 | 0.00 | 0.00 | 0.00 | 87 | 997.0 |
| 20260508180416 | 75 | 0 | 0.0 | 2.0 | 0.00 | 0.00 | 0.00 | 87 | 997.0 |
| 20260508175911 | 74 | 0 | 1.0 | 3.0 | 0.00 | 0.00 | 0.00 | 86 | 997.1 |
| 20260508175411 | 74 | 0 | 1.0 | 3.0 | 0.00 | 0.00 | 0.00 | 86 | 997.3 |
| 20260508174911 | 74 | 0 | 0.0 | 2.0 | 0.00 | 0.00 | 0.00 | 86 | 997.4 |
| 20260508174411 | 74 | 0 | 0.0 | 2.0 | 0.00 | 0.00 | 0.00 | 86 | 997.6 |
| 20260508173911 | 74 | 0 | 0.0 | 2.0 | 0.00 | 0.00 | 0.00 | 86 | 997.6 |
| 20260508173850 | 74 | 0 | 0.0 | 2.0 | 0.00 | 0.00 | 0.00 | 86 | 997.7 |
| 20260508172911 | 74 | 0 | 0.0 | 2.0 | 0.00 | 0.00 | 0.00 | 86 | 997.9 |
| 20260508172413 | 74 | 0 | 0.0 | 1.0 | 0.00 | 0.00 | 0.00 | 85 | 997.8 |
| 20260508172134 | 74 | 0 | 0.0 | 0.0 | 0.00 | 0.00 | 0.00 | 86 | 997.7 |
| 20260508171408 | 74 | 0 | 0.0 | 1.0 | 0.00 | 0.00 | 0.00 | 86 | 997.7 |
| 20260508170907 | 74 | 0 | 0.0 | 3.0 | 0.00 | 0.00 | 0.00 | 85 | 997.6 |
| 20260508170407 | 74 | 0 | 1.0 | 3.0 | 0.00 | 0.00 | 0.00 | 86 | 997.6 |
| 20260508165907 | 74 | 0 | 1.0 | 3.0 | 0.00 | 0.00 | 0.00 | 85 | 997.7 |
| 20260508165407 | 74 | 0 | 1.0 | 3.0 | 0.00 | 0.00 | 0.00 | 86 | 997.8 |
| 20260508164907 | 74 | 0 | 1.0 | 2.0 | 0.00 | 0.00 | 0.00 | 87 | 997.8 |
| 20260508164407 | 74 | 0 | 1.0 | 2.0 | 0.00 | 0.00 | 0.00 | 86 | 997.9 |
| 20260508163907 | 74 | 0 | 0.0 | 2.0 | 0.00 | 0.00 | 0.00 | 86 | 998.0 |
| 20260508163407 | 73 | 0 | 0.0 | 2.0 | 0.00 | 0.00 | 0.00 | 87 | 998.2 |
| 20260508163120 | 73 | 0 | 0.0 | 2.0 | 0.00 | 0.00 | 0.00 | 87 | 998.2 |
| 20260508162403 | 73 | 0 | 0.0 | 3.0 | 0.00 | 0.00 | 0.00 | 86 | 998.2 |
| 20260508161903 | 73 | 0 | 1.0 | 3.0 | 0.00 | 0.00 | 0.00 | 86 | 998.2 |
| 20260508161403 | 73 | 0 | 0.0 | 3.0 | 0.00 | 0.00 | 0.00 | 86 | 998.0 |
| 20260508160904 | 73 | 0 | 1.0 | 4.0 | 0.00 | 0.00 | 0.00 | 86 | 998.1 |
| 20260508160403 | 73 | 0 | 1.0 | 4.0 | 0.00 | 0.00 | 0.00 | 87 | 998.0 |
| 20260508155903 | 72 | 0 | 1.0 | 2.0 | 0.00 | 0.00 | 0.00 | 87 | 998.1 |
| 20260508155402 | 72 | 9 | 1.0 | 2.0 | 0.00 | 0.00 | 0.00 | 87 | 998.3 |
| 20260508154903 | 72 | 53 | 1.0 | 2.0 | 0.00 | 0.00 | 0.00 | 88 | 998.3 |
| 20260508154359 | 71 | 185 | 1.0 | 3.0 | 0.00 | 0.00 | 0.00 | 89 | 998.5 |
| 20260508153859 | 70 | 61 | 1.0 | 4.0 | 0.00 | 0.00 | 0.00 | 89 | 998.6 |
| 20260508153359 | 70 | 0 | 1.0 | 4.0 | 0.00 | 0.00 | 0.00 | 89 | 998.8 |
| 20260508152859 | 69 | 42 | 1.0 | 3.0 | 0.00 | 0.00 | 0.00 | 89 | 998.9 |
| 20260508152400 | 69 | 0 | 0.0 | 3.0 | 0.00 | 0.00 | 0.00 | 89 | 998.8 |
| 20260508152117 | 69 | 0 | 1.0 | 2.0 | 0.00 | 0.00 | 0.00 | 89 | 999.0 |
| 20260508151400 | 69 | 62 | 0.0 | 3.0 | 0.00 | 0.00 | 0.00 | 89 | 999.0 |
| 20260508150900 | 69 | 179 | 1.0 | 3.0 | 0.00 | 0.00 | 0.00 | 89 | 999.1 |
| 20260508150359 | 69 | 252 | 1.0 | 3.0 | 0.00 | 0.00 | 0.00 | 89 | 999.2 |
| 20260508145859 | 69 | 0 | 1.0 | 4.0 | 0.00 | 0.00 | 0.00 | 89 | 999.2 |
| 20260508145359 | 68 | 0 | 1.0 | 5.0 | 0.00 | 0.00 | 0.00 | 89 | 999.2 |
| 20260508144859 | 68 | 0 | 1.0 | 5.0 | 0.00 | 0.00 | 0.00 | 90 | 999.2 |
| 20260508144617 | 68 | 0 | 1.0 | 2.0 | 0.00 | 0.00 | 0.00 | 90 | 999.1 |
| 20260508143900 | 68 | 348 | 1.0 | 2.0 | 0.00 | 0.00 | 0.00 | 90 | 999.2 |
| 20260508143359 | 68 | 32 | 1.0 | 3.0 | 0.00 | 0.00 | 0.00 | 90 | 999.3 |
| 20260508143116 | 67 | 50 | 0.0 | 3.0 | 0.00 | 0.00 | 0.00 | 90 | 999.5 |
| 20260508142357 | 68 | 53 | 0.0 | 2.0 | 0.00 | 0.00 | 0.00 | 90 | 999.6 |
| 20260508141856 | 68 | 95 | 0.0 | 4.0 | 0.00 | 0.00 | 0.00 | 90 | 999.5 |
| 20260508141351 | 68 | 176 | 1.0 | 4.0 | 0.00 | 0.00 | 0.00 | 90 | 999.4 |
| 20260508141340 | 68 | 38 | 1.0 | 3.0 | 0.00 | 0.00 | 0.00 | 90 | 999.3 |
| 20260508140351 | 68 | 311 | 1.0 | 3.0 | 0.00 | 0.00 | 0.00 | 90 | 999.4 |
| 20260508135851 | 68 | 302 | 1.0 | 3.0 | 0.00 | 0.00 | 0.00 | 90 | 999.4 |
| 20260508135351 | 68 | 342 | 1.0 | 3.0 | 0.00 | 0.00 | 0.00 | 90 | 999.3 |
| 20260508134851 | 68 | 348 | 1.0 | 3.0 | 0.00 | 0.00 | 0.00 | 90 | 999.3 |
| 20260508134351 | 68 | 0 | 1.0 | 4.0 | 0.00 | 0.00 | 0.00 | 89 | 999.3 |
| 20260508133852 | 68 | 0 | 1.0 | 4.0 | 0.00 | 0.00 | 0.00 | 89 | 999.4 |
| 20260508133351 | 68 | 0 | 1.0 | 4.0 | 0.00 | 0.00 | 0.00 | 90 | 999.4 |
| 20260508132851 | 68 | 0 | 0.0 | 2.0 | 0.00 | 0.00 | 0.00 | 90 | 999.2 |
| 20260508132350 | 68 | 0 | 0.0 | 1.0 | 0.00 | 0.00 | 0.00 | 90 | 999.0 |
| 20260508131851 | 67 | 319 | 0.0 | 1.0 | 0.00 | 0.00 | 0.00 | 90 | 998.8 |
| 20260508131831 | 67 | 300 | 0.0 | 0.0 | 0.00 | 0.00 | 0.00 | 90 | 999.0 |
| 20260508130850 | 67 | 0 | 0.0 | 1.0 | 0.00 | 0.00 | 0.00 | 89 | 998.8 |
| 20260508130351 | 67 | 300 | 1.0 | 2.0 | 0.00 | 0.00 | 0.00 | 89 | 998.7 |
| 20260508125852 | 67 | 0 | 1.0 | 2.0 | 0.00 | 0.00 | 0.00 | 90 | 998.7 |
| 20260508125348 | 67 | 146 | 1.0 | 2.0 | 0.00 | 0.00 | 0.00 | 90 | 998.9 |
| 20260508125111 | 67 | 341 | 1.0 | 3.0 | 0.00 | 0.00 | 0.00 | 89 | 998.9 |
| 20260508124346 | 67 | 348 | 1.0 | 4.0 | 0.00 | 0.00 | 0.00 | 89 | 998.5 |
| 20260508124106 | 67 | 167 | 1.0 | 4.0 | 0.00 | 0.00 | 0.00 | 89 | 998.3 |
| 20260508123609 | 67 | 149 | 1.0 | 3.0 | 0.00 | 0.00 | 0.00 | 89 | 998.6 |
| 20260508123105 | 67 | 190 | 1.0 | 2.0 | 0.00 | 0.00 | 0.00 | 89 | 999.0 |
| 20260508122345 | 67 | 265 | 0.0 | 2.0 | 0.00 | 0.00 | 0.00 | 88 | 999.1 |
| 20260508122101 | 67 | 314 | 0.0 | 2.0 | 0.00 | 0.00 | 0.00 | 88 | 999.0 |
| 20260508121343 | 67 | 334 | 0.0 | 0.0 | 0.00 | 0.00 | 0.00 | 88 | 998.9 |
| 20260508120840 | 67 | 334 | 0.0 | 0.0 | 0.00 | 0.00 | 0.00 | 87 | 998.8 |
| 20260508120341 | 67 | 333 | 0.0 | 0.0 | 0.00 | 0.00 | 0.00 | 87 | 998.7 |
| 20260508115841 | 67 | 333 | 0.0 | 0.0 | 0.00 | 0.00 | 0.00 | 87 | 999.0 |
| 20260508115339 | 67 | 329 | 0.0 | 0.0 | 0.00 | 0.00 | 0.00 | 87 | 998.9 |
| 20260508114839 | 67 | 0 | 0.0 | 0.0 | 0.00 | 0.00 | 0.00 | 87 | 998.7 |
| 20260508114336 | 67 | 0 | 0.0 | 0.0 | 0.00 | 0.00 | 0.00 | 87 | 998.9 |
| 20260508113835 | 67 | 0 | 0.0 | 0.0 | 0.00 | 0.00 | 0.00 | 87 | 999.1 |
| 20260508113603 | 68 | 0 | 0.0 | 0.0 | 0.00 | 0.00 | 0.00 | 87 | 999.0 |
| 20260508112833 | 68 | 0 | 0.0 | 0.0 | 0.00 | 0.00 | 0.00 | 86 | 999.1 |
| 20260508112332 | 68 | 0 | 0.0 | 0.0 | 0.00 | 0.00 | 0.00 | 86 | 999.0 |
| 20260508111828 | 68 | 265 | 0.0 | 0.0 | 0.00 | 0.00 | 0.00 | 86 | 998.9 |
| 20260508111328 | 68 | 265 | 0.0 | 0.0 | 0.00 | 0.00 | 0.00 | 86 | 999.0 |
| 20260508110827 | 68 | 284 | 0.0 | 1.0 | 0.00 | 0.00 | 0.00 | 86 | 999.0 |
| 20260508110329 | 68 | 284 | 0.0 | 2.0 | 0.00 | 0.00 | 0.00 | 86 | 998.9 |
| 20260508105825 | 68 | 284 | 0.0 | 2.0 | 0.00 | 0.00 | 0.00 | 86 | 998.4 |
| 20260508105326 | 68 | 61 | 1.0 | 4.0 | 0.00 | 0.00 | 0.00 | 86 | 998.3 |
| 20260508104823 | 68 | 327 | 1.0 | 4.0 | 0.00 | 0.00 | 0.00 | 85 | 998.6 |
| 20260508104322 | 68 | 326 | 1.0 | 3.0 | 0.00 | 0.00 | 0.00 | 86 | 998.5 |
| 20260508104306 | 68 | 323 | 1.0 | 2.0 | 0.00 | 0.00 | 0.00 | 85 | 998.5 |
| 20260508103538 | 68 | 306 | 0.0 | 2.0 | 0.00 | 0.00 | 0.00 | 85 | 998.5 |
| 20260508102819 | 68 | 263 | 0.0 | 1.0 | 0.00 | 0.00 | 0.00 | 85 | 998.6 |
| 20260508102316 | 68 | 263 | 0.0 | 0.0 | 0.00 | 0.00 | 0.00 | 86 | 998.9 |
| 20260508101817 | 68 | 263 | 0.0 | 0.0 | 0.00 | 0.00 | 0.00 | 86 | 999.2 |